• In Russia
  • List of Countries
  • For 7 days
  • Water Temperature
  • Satellite Maps
  • Weather Map
  • Weather Widgets
  • user-avatar
    Login

    Hourly Weather Innsbruck

    Today, 26 September, Tuesday

    Time Temperature Precipitation Wind Pressure Humidity
    00:00 +1°C° 0 mm 1 mps 596 mmHg 88%
    01:00 +1°C° 0 mm 1 mps 596 mmHg 89%
    02:00 +1°C° 0 mm 1 mps 596 mmHg 89%
    03:00 +1°C° 0 mm 1 mps 596 mmHg 89%
    04:00 0°C° 0 mm 1 mps 596 mmHg 89%
    05:00 +1°C° 0 mm 1 mps 596 mmHg 88%
    06:00 +1°C° 0 mm 1 mps 597 mmHg 87%
    07:00 +1°C° 0 mm 1 mps 597 mmHg 87%
    08:00 +4°C° 0 mm 1 mps 598 mmHg 78%
    09:00 +6°C° 0 mm 1 mps 599 mmHg 69%
    10:00 +8°C° 0 mm 0 mps 600 mmHg 60%
    11:00 +9°C° 0 mm 1 mps 600 mmHg 58%
    12:00 +10°C° 0 mm 1 mps 601 mmHg 57%
    13:00 +11°C° 0 mm 1 mps 601 mmHg 55%
    14:00 +10°C° 0.2 mm 1 mps 601 mmHg 60%
    15:00 +9°C° 0.2 mm 1 mps 600 mmHg 64%
    16:00 +9°C° 0.2 mm 1 mps 600 mmHg 69%
    17:00 +7°C° 0.3 mm 1 mps 600 mmHg 76%
    18:00 +4°C° 0.3 mm 0 mps 599 mmHg 83%
    19:00 +2°C° 0.3 mm 0 mps 598 mmHg 90%
    20:00 +2°C° 0 mm 0 mps 598 mmHg 90%
    21:00 +3°C° 0 mm 1 mps 599 mmHg 90%
    22:00 +2°C° 0 mm 1 mps 599 mmHg 90%
    23:00 +2°C° 0 mm 1 mps 598 mmHg 90%

    Tomorrow, 27 September, Wednesday

    Time Temperature Precipitation Wind Pressure Humidity
    00:00 +2°C° 0 mm 1 mps 598 mmHg 89%
    01:00 +1°C° 0 mm 1 mps 598 mmHg 89%
    02:00 +1°C° 0 mm 1 mps 598 mmHg 89%
    03:00 +1°C° 0 mm 1 mps 598 mmHg 88%
    04:00 +1°C° 0 mm 1 mps 598 mmHg 88%
    05:00 +1°C° 0 mm 1 mps 598 mmHg 87%
    06:00 +2°C° 0 mm 1 mps 599 mmHg 86%
    07:00 +2°C° 0 mm 1 mps 599 mmHg 85%
    08:00 +5°C° 0 mm 1 mps 600 mmHg 77%
    09:00 +7°C° 0 mm 1 mps 601 mmHg 70%
    10:00 +10°C° 0 mm 1 mps 603 mmHg 62%
    11:00 +10°C° 0 mm 1 mps 603 mmHg 59%
    12:00 +11°C° 0 mm 1 mps 603 mmHg 56%
    13:00 +12°C° 0 mm 1 mps 603 mmHg 54%
    14:00 +11°C° 0 mm 1 mps 603 mmHg 56%
    15:00 +11°C° 0 mm 1 mps 602 mmHg 59%
    16:00 +11°C° 0 mm 1 mps 602 mmHg 62%
    17:00 +8°C° 0 mm 1 mps 601 mmHg 70%
    18:00 +6°C° 0 mm 1 mps 600 mmHg 79%
    19:00 +4°C° 0 mm 1 mps 600 mmHg 88%
    20:00 +3°C° 0 mm 1 mps 600 mmHg 88%
    21:00 +3°C° 0 mm 1 mps 600 mmHg 87%
    22:00 +3°C° 0 mm 1 mps 600 mmHg 87%
    23:00 +3°C° 0 mm 1 mps 600 mmHg 87%

    Day after tomorrow, 28 September, Thursday

    Time Temperature Precipitation Wind Pressure Humidity
    00:00 +2°C° 0 mm 1 mps 600 mmHg 86%
    01:00 +2°C° 0 mm 1 mps 600 mmHg 86%
    02:00 +2°C° 0 mm 1 mps 600 mmHg 85%
    03:00 +2°C° 0 mm 1 mps 600 mmHg 85%
    04:00 +2°C° 0 mm 1 mps 600 mmHg 85%
    05:00 +2°C° 0 mm 1 mps 600 mmHg 84%
    06:00 +3°C° 0 mm 1 mps 601 mmHg 82%
    07:00 +3°C° 0 mm 1 mps 601 mmHg 81%
    08:00 +6°C° 0 mm 1 mps 602 mmHg 73%
    09:00 +9°C° 0 mm 1 mps 603 mmHg 65%
    10:00 +11°C° 0 mm 1 mps 605 mmHg 56%
    11:00 +12°C° 0 mm 1 mps 605 mmHg 55%
    12:00 +12°C° 0 mm 1 mps 605 mmHg 53%
    13:00 +13°C° 0 mm 1 mps 605 mmHg 52%
    14:00 +12°C° 0 mm 1 mps 604 mmHg 56%
    15:00 +12°C° 0 mm 1 mps 604 mmHg 59%
    16:00 +10°C° 0 mm 2 mps 604 mmHg 63%
    17:00 +9°C° 0 mm 1 mps 603 mmHg 71%
    18:00 +7°C° 0 mm 1 mps 602 mmHg 80%
    19:00 +5°C° 0 mm 1 mps 602 mmHg 88%
    20:00 +5°C° 0 mm 1 mps 601 mmHg 89%
    21:00 +5°C° 0 mm 1 mps 601 mmHg 90%
    22:00 +4°C° 0 mm 1 mps 601 mmHg 91%
    23:00 +4°C° 0 mm 1 mps 601 mmHg 90%

    29 September, Friday

    Time Temperature Precipitation Wind Pressure Humidity
    00:00 +3°C° 0 mm 1 mps 601 mmHg 90%
    01:00 +3°C° 0 mm 1 mps 600 mmHg 90%
    02:00 +3°C° 0 mm 1 mps 600 mmHg 89%
    03:00 +2°C° 0 mm 1 mps 600 mmHg 88%
    04:00 +2°C° 0 mm 1 mps 600 mmHg 87%
    05:00 +3°C° 0 mm 1 mps 600 mmHg 86%
    06:00 +3°C° 0 mm 1 mps 600 mmHg 84%
    07:00 +4°C° 0 mm 1 mps 600 mmHg 82%
    08:00 +6°C° 0 mm 1 mps 602 mmHg 74%
    09:00 +8°C° 0 mm 1 mps 603 mmHg 66%
    10:00 +11°C° 0 mm 1 mps 604 mmHg 58%
    11:00 +11°C° 0.1 mm 1 mps 603 mmHg 58%
    12:00 +11°C° 0.1 mm 1 mps 603 mmHg 59%
    13:00 +12°C° 0.1 mm 2 mps 603 mmHg 60%
    14:00 +11°C° 0.5 mm 1 mps 603 mmHg 65%
    15:00 +10°C° 0.5 mm 1 mps 602 mmHg 71%
    16:00 +10°C° 0.5 mm 1 mps 602 mmHg 76%
    17:00 +8°C° 0.3 mm 1 mps 601 mmHg 82%
    18:00 +7°C° 0.3 mm 1 mps 601 mmHg 87%
    19:00 +5°C° 0.3 mm 1 mps 600 mmHg 92%
    20:00 +5°C° 0 mm 1 mps 600 mmHg 93%
    21:00 +4°C° 0 mm 1 mps 600 mmHg 93%
    22:00 +3°C° 0 mm 1 mps 599 mmHg 94%
    23:00 +3°C° 0 mm 1 mps 599 mmHg 93%

    30 September, Saturday

    Time Temperature Precipitation Wind Pressure Humidity
    00:00 +2°C° 0 mm 1 mps 599 mmHg 92%
    01:00 +2°C° 0 mm 1 mps 598 mmHg 91%
    02:00 +2°C° 0 mm 1 mps 598 mmHg 90%
    03:00 +2°C° 0 mm 1 mps 598 mmHg 89%
    04:00 +2°C° 0 mm 1 mps 598 mmHg 89%
    05:00 +2°C° 0 mm 1 mps 598 mmHg 88%
    06:00 +3°C° 0 mm 1 mps 598 mmHg 87%
    07:00 +3°C° 0 mm 1 mps 598 mmHg 87%
    08:00 +5°C° 0 mm 1 mps 599 mmHg 79%
    09:00 +8°C° 0 mm 1 mps 600 mmHg 71%
    10:00 +11°C° 0 mm 1 mps 601 mmHg 63%
    11:00 +11°C° 0 mm 1 mps 601 mmHg 61%
    12:00 +12°C° 0 mm 1 mps 601 mmHg 58%
    13:00 +12°C° 0 mm 1 mps 601 mmHg 56%
    14:00 +12°C° 0.2 mm 2 mps 601 mmHg 61%
    15:00 +10°C° 0.2 mm 2 mps 600 mmHg 66%
    16:00 +9°C° 0.2 mm 2 mps 600 mmHg 72%
    17:00 +8°C° 0.1 mm 1 mps 599 mmHg 79%
    18:00 +7°C° 0.1 mm 1 mps 598 mmHg 87%
    19:00 +5°C° 0.1 mm 1 mps 597 mmHg 94%
    20:00 +4°C° 0 mm 1 mps 597 mmHg 95%
    21:00 +4°C° 0 mm 1 mps 597 mmHg 95%
    22:00 +4°C° 0 mm 1 mps 597 mmHg 96%
    23:00 +4°C° 0 mm 1 mps 597 mmHg 95%

    1 October, Sunday

    Time Temperature Precipitation Wind Pressure Humidity
    00:00 +3°C° 0 mm 1 mps 597 mmHg 95%
    01:00 +3°C° 0 mm 1 mps 597 mmHg 95%
    02:00 +3°C° 0.1 mm 1 mps 597 mmHg 95%
    03:00 +3°C° 0.1 mm 1 mps 597 mmHg 95%
    04:00 +3°C° 0.1 mm 1 mps 597 mmHg 94%
    05:00 +3°C° 0.1 mm 1 mps 597 mmHg 94%
    06:00 +3°C° 0.1 mm 0 mps 597 mmHg 94%
    07:00 +3°C° 0.1 mm 0 mps 597 mmHg 93%
    08:00 +5°C° 0.1 mm 0 mps 598 mmHg 87%
    09:00 +6°C° 0.1 mm 0 mps 599 mmHg 80%
    10:00 +8°C° 0.1 mm 0 mps 600 mmHg 73%
    11:00 +10°C° 0.2 mm 1 mps 600 mmHg 71%
    12:00 +10°C° 0.2 mm 1 mps 600 mmHg 69%
    13:00 +10°C° 0.2 mm 1 mps 600 mmHg 67%
    14:00 +10°C° 0.3 mm 1 mps 600 mmHg 71%
    15:00 +10°C° 0.3 mm 1 mps 600 mmHg 74%
    16:00 +9°C° 0.3 mm 1 mps 600 mmHg 78%
    17:00 +8°C° 0.1 mm 1 mps 599 mmHg 84%
    18:00 +6°C° 0.1 mm 1 mps 599 mmHg 90%
    19:00 +4°C° 0.1 mm 0 mps 598 mmHg 96%
    20:00 +4°C° 0 mm 0 mps 598 mmHg 97%
    21:00 +4°C° 0 mm 1 mps 598 mmHg 97%
    22:00 +4°C° 0 mm 1 mps 598 mmHg 97%
    23:00 +4°C° 0 mm 1 mps 598 mmHg 97%
    Show more